Date String (YYYY-MM-DD hh:mm:ss) UTC,Instrument flags,Ambient pressure (hPa),Sample flow (lpm),Bypass flow (lpm),Sample temperature (°C),Ambient temperature (°C),ASC tube jacket temperature (°C),LED temperature (°C),Box temperature (°C),Sample RH (%),Span deviation,Mass concentration (μg/m³),Mass concentration (μg/m³),Mass concentration (μg/m³)
DateTimeUTC,F1_M11,P_M11,Q1_M11,Q2_M11,T1_M11,T2_M11,T3_M11,T4_M11,T5_M11,U1_M11,ZSPAN_M11,X0_M11,X2_M11,X1_M11
2022-09-06 17:00:00,,0832.3,5.00,0.00,29.7,26.8,00.0,38.4,31.5,16.1,0003.0,0023.80,0015.80,0014.74
2022-09-06 17:01:00,,0832.3,4.99,0.00,29.7,27.0,00.0,38.4,31.5,16.2,0003.0,0023.54,0015.69,0014.66
2022-09-06 17:02:00,,0832.3,5.01,0.00,29.7,27.3,00.0,38.3,31.4,16.4,0003.1,0023.17,0015.60,0014.63
2022-09-06 17:03:00,,0832.4,5.00,0.00,29.6,27.6,00.0,38.3,31.4,16.7,0003.8,0023.84,0015.59,0014.64
2022-09-06 17:04:00,,0832.3,5.01,0.00,29.7,27.8,00.0,38.3,31.4,16.5,0003.6,0024.35,0015.68,0014.73
2022-09-06 17:05:00,,0832.4,5.00,0.00,29.7,28.1,00.0,38.3,31.5,16.2,0003.7,0024.43,0015.79,0014.84
2022-09-06 17:06:00,,0832.4,5.00,0.00,29.7,28.3,00.0,38.3,31.6,16.1,0003.0,0023.86,0015.94,0014.93
2022-09-06 17:07:00,,0832.4,5.01,0.00,29.7,28.5,00.0,38.4,31.7,15.9,0003.0,0024.23,0016.11,0015.05
2022-09-06 17:08:00,,0832.4,4.98,0.00,29.8,28.3,00.0,38.4,31.7,15.8,0003.1,0024.81,0016.23,0015.16
2022-09-06 17:09:00,,0832.4,5.01,0.00,29.8,27.2,00.0,38.4,31.6,15.9,0003.2,0024.79,0016.35,0015.27
2022-09-06 17:10:00,,0832.3,5.00,0.00,29.7,26.8,00.0,38.3,31.5,15.6,0003.4,0024.59,0016.50,0015.42
2022-09-06 17:11:00,,0832.3,4.99,0.00,29.7,27.2,00.0,38.3,31.5,15.3,0003.3,0024.21,0016.64,0015.59
2022-09-06 17:12:00,,0832.4,5.00,0.00,29.7,27.4,00.0,38.3,31.4,15.5,0003.2,0023.93,0016.76,0015.77
2022-09-06 17:13:00,,0832.4,5.01,0.00,29.7,27.7,00.0,38.3,31.4,15.5,0003.1,0024.11,0016.96,0015.96
2022-09-06 17:14:00,,0832.4,4.99,0.00,29.7,28.0,00.0,38.3,31.5,15.8,0003.4,0023.54,0017.20,0016.14
2022-09-06 17:15:00,,0832.4,5.01,0.00,29.7,28.2,00.0,38.3,31.6,15.9,0003.6,0023.36,0017.32,0016.24
2022-09-06 17:16:00,,0832.4,5.01,0.00,29.7,28.4,00.0,38.3,31.6,15.7,0003.7,0023.40,0017.41,0016.32
2022-09-06 17:17:00,,0832.4,5.00,0.00,29.8,28.3,00.0,38.4,31.7,15.9,0004.1,0023.47,0017.50,0016.41
2022-09-06 17:18:00,,0832.4,4.99,0.00,29.7,27.3,00.0,38.4,31.5,15.6,0004.0,0023.37,0017.56,0016.50
2022-09-06 17:19:00,,0832.4,5.00,0.00,29.7,26.8,00.0,38.3,31.5,16.0,0004.0,0022.94,0017.67,0016.61
2022-09-06 17:20:00,,0832.4,5.00,0.00,29.7,27.1,00.0,38.3,31.5,16.4,0004.1,0023.21,0017.73,0016.67
2022-09-06 17:21:00,,0832.4,4.99,0.00,29.6,27.4,00.0,38.3,31.4,16.9,0003.9,0023.68,0017.66,0016.62
2022-09-06 17:22:00,,0832.4,5.00,0.00,29.6,27.7,00.0,38.3,31.4,16.9,0004.0,0023.68,0017.58,0016.52
2022-09-06 17:23:00,,0832.4,5.01,0.00,29.6,27.9,00.0,38.3,31.4,16.9,0004.4,0024.16,0017.53,0016.45
2022-09-06 17:24:00,,0832.4,5.01,0.00,29.7,28.2,00.0,38.3,31.5,16.6,0004.7,0023.92,0017.48,0016.41
2022-09-06 17:25:00,,0832.4,4.98,0.00,29.7,28.4,00.0,38.3,31.6,16.8,0004.4,0023.98,0017.46,0016.37
2022-09-06 17:26:00,,0832.4,5.00,0.00,29.7,28.3,00.0,38.3,31.6,17.1,0004.4,0025.37,0017.42,0016.34
2022-09-06 17:27:00,,0832.4,4.98,0.00,29.7,27.3,00.0,38.3,31.5,16.3,0004.5,0025.26,0017.38,0016.35
2022-09-06 17:28:00,,0832.4,5.00,0.00,29.7,26.8,00.0,38.3,31.5,16.6,0004.3,0025.67,0017.41,0016.37
2022-09-06 17:29:00,,0832.4,5.00,0.00,29.7,27.1,00.0,38.3,31.5,16.7,0004.4,0025.69,0017.37,0016.30
2022-09-06 17:30:00,,0832.4,5.01,0.00,29.6,27.3,00.0,38.3,31.3,17.3,0004.3,0025.68,0017.25,0016.21
2022-09-06 17:31:00,,0832.3,5.00,0.00,29.6,27.6,00.0,38.3,31.3,17.4,0004.1,0026.17,0017.07,0016.10
2022-09-06 17:32:00,,0832.3,5.00,0.00,29.6,27.9,00.0,38.3,31.4,17.0,0003.8,0025.81,0017.04,0016.06
2022-09-06 17:33:00,,0832.3,4.99,0.00,29.6,28.1,00.0,38.3,31.5,17.2,0003.4,0025.93,0017.07,0016.07
2022-09-06 17:34:00,,0832.3,5.01,0.00,29.7,28.3,00.0,38.3,31.6,18.3,0002.7,0025.48,0017.03,0016.01
2022-09-06 17:35:00,,0832.3,4.99,0.00,29.7,28.5,00.0,38.3,31.6,18.4,0002.2,0025.73,0016.94,0015.91
2022-09-06 17:36:00,,0832.3,5.00,0.00,29.8,28.1,00.0,38.3,31.6,18.3,0002.4,0025.89,0016.77,0015.80
2022-09-06 17:37:00,,0832.3,5.00,0.00,29.7,27.1,00.0,38.3,31.4,18.6,0002.6,0025.31,0016.64,0015.70
2022-09-06 17:38:00,,0832.2,5.00,0.00,29.6,27.0,00.0,38.3,31.4,18.4,0002.6,0025.66,0016.56,0015.56
2022-09-06 17:39:00,,0832.2,4.99,0.00,29.6,27.2,00.0,38.3,31.4,18.6,0002.6,0025.83,0016.39,0015.41
2022-09-06 17:40:00,,0832.2,5.00,0.00,29.6,27.5,00.0,38.3,31.3,18.2,0002.8,0026.60,0016.28,0015.32
2022-09-06 17:41:00,,0832.2,5.01,0.00,29.6,27.8,00.0,38.3,31.4,18.3,0002.8,0026.79,0016.29,0015.24
2022-09-06 17:42:00,,0832.2,5.01,0.00,29.6,28.0,00.0,38.3,31.4,18.7,0002.7,0025.99,0016.24,0015.16
2022-09-06 17:43:00,,0832.1,4.98,0.00,29.7,28.3,00.0,38.3,31.5,19.2,0002.9,0025.94,0016.17,0015.05
2022-09-06 17:44:00,,0832.2,5.00,0.00,29.7,28.3,00.0,38.3,31.6,18.7,0003.1,0026.43,0016.10,0014.97
2022-09-06 17:45:00,,0832.1,5.00,0.00,29.7,27.5,00.0,38.3,31.5,19.0,0003.5,0027.13,0016.04,0014.92
2022-09-06 17:46:00,,0832.1,5.00,0.00,29.7,26.8,00.0,38.3,31.4,19.1,0003.5,0028.59,0016.02,0014.88
2022-09-06 17:47:00,,0832.1,5.01,0.00,29.6,27.0,00.0,38.3,31.4,19.5,0003.5,0029.37,0016.03,0014.85
2022-09-06 17:48:00,,0832.1,5.01,0.00,29.6,27.3,00.0,38.3,31.4,18.8,0002.7,0028.98,0016.10,0014.86
2022-09-06 17:49:00,,0832.1,4.99,0.00,29.6,27.6,00.0,38.3,31.4,18.7,0002.3,0028.87,0016.15,0014.89
2022-09-06 17:50:00,,0832.1,5.00,0.00,29.6,27.9,00.0,38.3,31.4,19.1,0002.4,0029.25,0016.21,0014.90
2022-09-06 17:51:00,,0832.1,5.01,0.00,29.6,28.1,00.0,38.3,31.5,19.4,0002.5,0028.86,0016.21,0014.89
2022-09-06 17:52:00,,0832.1,5.01,0.00,29.7,28.2,00.0,38.3,31.6,19.5,0002.8,0029.74,0016.20,0014.86
2022-09-06 17:53:00,,0832.1,5.00,0.00,29.7,27.3,00.0,38.3,31.4,19.7,0002.8,0029.87,0016.29,0014.87
2022-09-06 17:54:00,,0832.1,5.00,0.00,29.6,26.7,00.0,38.3,31.3,20.2,0002.6,0029.63,0016.34,0014.90
2022-09-06 17:55:00,,0832.2,5.00,0.00,29.6,26.9,00.0,38.2,31.4,20.3,0002.9,0029.35,0016.37,0014.90
2022-09-06 17:56:00,,0832.1,5.00,0.00,29.6,27.2,00.0,38.2,31.3,20.0,0003.6,0029.13,0016.44,0014.92
2022-09-06 17:57:00,,0832.1,5.00,0.00,29.5,27.5,00.0,38.2,31.3,19.8,0004.0,0027.64,0016.51,0014.96
2022-09-06 17:58:00,,0832.2,5.01,0.00,29.6,27.8,00.0,38.2,31.4,19.8,0004.1,0026.97,0016.49,0014.96
2022-09-06 17:59:00,,0832.1,4.99,0.00,29.6,28.1,00.0,38.2,31.4,19.9,0004.6,0027.08,0016.43,0014.96
